Regional Weather Roundup
Issued by NWS

Home | Current Version | Previous Version | Text Only | Print | Product List | Glossary On
Versions: 1 2 3 4 5 6 7 8 9 10 11 12 13 14 15 16 17 18 19 20 21 22 23 24 25 26 27 28
000
ASCA42 TJSJ 231010
RWRPR
PUERTO RICO/U.S. VIRGIN ISLANDS HOURLY WEATHER ROUNDUP
NATIONAL WEATHER SERVICE SAN JUAN PR
600 AM AST MON APR 23 2018

PRZ001>002-007>008-010-231100-
PUERTO RICO

CITY           SKY/WX    TMP DP  RH WIND       PRES   REMARKS
SAN JUAN LMM   MOCLDY    75  72  88 CALM      30.01R
CEIBA          PTCLDY   N/A N/A N/A NE5       30.02
$$

VIZ001>002-231100-
U.S. VIRGIN ISLANDS

CITY           SKY/WX    TMP DP  RH WIND       PRES   REMARKS
CHARLOTTE AMA  CLEAR     77  73  88 E7        29.99
CHRISTIANSTED  CLEAR     75  72  88 NE6       30.00R
$$

HOURLY WEATHER ROUNDUP FOR THE NEWS MEDIA

CITY           SKY/WX    TMP DP  RH WIND       PRES   REMARKS
NEW YORK       FAIR      41  35  79 N6        30.44S
NEWARK         FAIR      41  31  67 N6        30.44R
CHICAGO        MOCLDY    43  28  55 N8        30.21R
HARTFORD         N/A     31  26  82 CALM      30.44R
BOSTON         FAIR      44  20  38 NW6       30.46R
DALLAS         FAIR      53  47  79 N6        30.03R
PHILADELPHIA   FAIR      43  36  76 SW5       30.43S
LOS ANGELES    CLOUDY    58  56  93 CALM      29.96S FOG
WASHINGTON DC  MOCLDY    42  37  82 CALM      30.40R



USA.gov is the U.S. government's official web portal to all federal, state and local government web resources and services.